User: anonymous   Login
Location: Lourdes
(43.1000°N, 0.0500°W)
Time: 22:27:26
(UTC+00:00)
Language:

Cosmos 773 Rocket - Orbit

View from above orbital plane
View from above orbital plane
View from above satellite
View from above satellite

Ground track
Ground track

The orbit data is extracted from the following two-line orbital elements,

1 08344U 75094B   21058.55509591  .00000054  00000-0  25935-4 0  9996
2 08344  74.0577 155.3206 0020663  77.1119 283.2342 14.39173272379828
Epoch (UTC): 27 February 2021 13:19:20
Eccentricity: 0.0020663
inclination: 74.0577°
perigee height: 746 km
apogee height: 776 km
right ascension of ascending node: 155.3206°
argument of perigee: 77.1119°
revolutions per day: 14.39173272
mean anomaly at epoch: 283.2342°
orbit number at epoch: 37982

The dashed part of the orbit path shows where the satellite is in the earth's shadow,  

DLR